www.pogodaiklimat.ru

Погода и климат >> Архив погоды >> Австралия >> Новый Южный Уэльс >> Канберра


АРХИВ ПОГОДЫ в Канберре

Время (UTC), дата Ветер
(напр.,м/с)
 
Видим.   Явления Облачность Т
(С)
Тd
(С)
f
(%)
Тe
(С)
Тes
(С)
Комфортность P
(гПа)
Po
(гПа)
Тmin
(С)
Tmax
(С)
R
(мм)
R24
(мм)
S
(см)
16 14.03 ЮВ 3 н/о н/о +13.1 +11.2 88 +12 +12 тепло 1013.1 947.4
17 14.03 ЮВ 4 н/о н/о +12.6 +11.0 90 +11 +11 по сезону 1012.9 947.2
18 14.03 ЮВ 3 н/о н/о +13.7 +11.8 88 +13 +13 по сезону 1013.1 947.4
19 14.03 ЮВ 3 н/о 10/10 600 м
[]
+14.5 +11.7 83 +14 +14 по сезону 1013.5 947.8
20 14.03 ЮВ 3 н/о н/о +15.3 +11.5 78 +15 +15 по сезону 1014.4 948.6
21 14.03 ЮЗ 4 н/о н/о +15.6 +10.6 72 +15 +15 по сезону 1015.6 949.7
22 14.03 Ю 7 н/о 10/10 600 м
[]
+16.3 +10.4 68 +15 +15 холодно 1016.0 950.1
23 14.03 ЮВ 5 н/о н/о +16.6 +9.5 63 +16 +16 холодно 1016.7 950.8
00 15.03 Ю 5 н/о н/о +17.2 +9.1 59 +17 +17 прохладно 1017.1 951.1
01 15.03 Ю 7 н/о 10/10 600 м
[]
+18.5 +9.0 54 +18 +18 очень
холодно
1017.1 951.1 +12.5
02 15.03 Ю 7 н/о н/о +19.6 +9.2 51 +20 +20 прохладно 1016.9 951.0
03 15.03 Ю 3 н/о н/о +22.0 +9.9 46 +24 +24 комфорт 1016.6 950.7
04 15.03 В 3 н/о 9/9 1000 м
[]
+23.0 +9.4 42 +25 +26 комфорт 1015.8 949.9
05 15.03 ЮВ 4 н/о н/о +23.3 +8.2 38 +24 +24 комфорт 1015.5 949.6
06 15.03 В 5 н/о н/о +23.3 +8.6 39 +25 +25 комфорт 1015.0 949.2
07 15.03 В 7 н/о н/о +22.0 +10.5 48 +24 +24 комфорт 1015.6 949.7
08 15.03 ЮВ 7 н/о н/о +19.5 +9.7 53 +20 +20 прохладно 1016.7 950.8
09 15.03 В 5 н/о н/о +17.3 +9.7 61 +17 +17 прохладно 1017.8 951.8
10 15.03 ЮВ 7 н/о н/о +15.9 +10.2 69 +14 +14 по сезону 1018.8 952.7
11 15.03 ЮВ 4 н/о н/о +15.4 +10.4 72 +15 +15 по сезону 1019.3 953.2
12 15.03 ЮВ 2 н/о н/о +14.3 +10.1 76 +14 +14 прохладно 1020.0 953.9
13 15.03 Ю 3 н/о н/о +13.9 +8.7 71 +13 +13 по сезону 1019.7 953.6 +25.0
14 15.03 ЮВ 3 н/о н/о +13.3 +9.0 75 +12 +12 по сезону 1019.8 953.7
15 15.03 штиль 0 н/о н/о +14.6 +10.0 74 +14 +14 по сезону 1019.7 953.6
16 15.03 ЮВ 2 н/о 10/10 600 м
[]
+15.4 +11.0 75 +15 +15 тепло 1019.2 953.1
17 15.03 Ю 4 н/о н/о +16.0 +12.0 77 +15 +15 тепло 1018.9 952.8
18 15.03 Ю 4 н/о н/о +15.9 +12.5 80 +15 +15 тепло 1019.2 953.1
19 15.03 Ю 3 н/о 10/10 600 м
[]
+15.5 +12.1 80 +15 +15 по сезону 1019.6 953.5
20 15.03 ЮВ 5 н/о н/о +15.0 +12.7 86 +14 +14 по сезону 1019.8 953.7
21 15.03 ЮВ 3 н/о н/о +16.1 +12.5 79 +16 +16 по сезону 1020.4 954.2
22 15.03 ЮВ 5 н/о н/о +18.2 +11.5 65 +18 +18 прохладно 1020.5 954.3
23 15.03 ЮВ 6 н/о н/о +20.1 +10.8 55 +21 +21 комфорт 1020.7 954.5
00 16.03 В 9 н/о н/о +20.7 +11.1 54 +22 +22 комфорт 1020.7 954.5
01 16.03 В 10 н/о 1/1 1000 м
[]
+23.0 +10.1 44 +25 +26 комфорт 1020.5 954.3 +13.3
02 16.03 В 8 н/о н/о +23.3 +11.7 48 +26 +26 жарко 1020.3 954.1
03 16.03 В 7 н/о н/о +22.7 +10.5 46 +25 +25 комфорт 1019.7 953.6
04 16.03 В 6 н/о 10/10 1500 м
[]
+22.5 +10.0 45 +24 +24 комфорт 1019.3 953.2
05 16.03 В 7 н/о н/о +22.3 +11.4 50 +24 +24 комфорт 1019.1 953.0
06 16.03 В 7 н/о н/о +21.9 +10.1 47 +24 +24 комфорт 1018.9 952.8
07 16.03 В 6 н/о 10/10 1000 м
[]
+20.8 +10.3 51 +22 +22 комфорт 1019.4 953.3
08 16.03 ЮВ 5 н/о н/о +18.8 +11.4 62 +19 +19 прохладно 1019.8 953.7
09 16.03 ЮВ 6 н/о н/о +17.7 +12.4 71 +17 +17 прохладно 1020.3 954.1
10 16.03 ЮВ 5 н/о н/о +16.4 +11.1 71 +16 +16 по сезону 1020.9 954.7
11 16.03 Ю 3 н/о н/о +16.4 +12.0 75 +16 +16 по сезону 1020.9 954.7
12 16.03 Ю 4 н/о н/о +16.2 +12.6 79 +16 +16 по сезону 1020.5 954.3
13 16.03 Ю 4 н/о 10/10 600 м
[]
+16.9 +12.8 77 +17 +17 тепло 1019.9 953.8 +24.6
14 16.03 Ю 3 н/о н/о +16.2 +13.7 85 +16 +16 тепло 1019.8 953.7
15 16.03 Ю 3 н/о н/о +16.1 +13.8 86 +16 +16 тепло 1019.3 953.2
16 16.03 Ю 4 н/о 10/10 300 м
[]
+15.2 +13.4 89 +14 +14 тепло 1018.4 952.4
17 16.03 Ю 2 н/о н/о +15.6 +13.6 88 +15 +15 тепло 1017.8 951.8
18 16.03 Ю 2 н/о н/о +16.2 +13.9 86 +16 +16 тепло 1018.1 952.1
19 16.03 Ю 4 н/о 10/10 300 м
[]
+15.9 +14.1 89 +15 +15 по сезону 1017.9 951.9
20 16.03 Ю 3 н/о н/о +15.5 +13.5 88 +15 +15 по сезону 1018.3 952.3
21 16.03 Ю 3 н/о н/о +15.3 +13.5 89 +15 +15 по сезону 1018.7 952.6
22 16.03 Ю 4 н/о 10/0
[]
+18.1 +12.8 71 +18 +19 прохладно 1018.6 952.5
23 16.03 Ю 5 н/о н/о +18.5 +11.3 63 +19 +19 по сезону 1018.8 952.7
00 17.03 ЮВ 6 н/о н/о +20.1 +11.3 57 +21 +21 комфорт 1018.4 952.4
01 17.03 Ю 6 н/о 9/9 1000 м
[]
+21.0 +10.5 51 +23 +23 комфорт 1017.8 951.8 +14.7
02 17.03 ЮВ 5 н/о н/о +22.1 +9.9 46 +24 +24 комфорт 1016.7 950.8
03 17.03 ЮВ 6 н/о н/о +21.8 +9.3 45 +23 +23 комфорт 1015.7 949.8
04 17.03 ЮВ 6 н/о 9/0
[]
+21.9 +9.8 46 +23 +26 комфорт 1015.2 949.4
05 17.03 ЮВ 7 н/о н/о +22.1 +7.5 39 +23 +23 комфорт 1014.8 949.0
06 17.03 ЮВ 5 н/о н/о +21.8 +8.3 42 +23 +23 комфорт 1014.2 948.4
07 17.03 Ю 8 н/о 10/0
[]
+21.7 +6.4 37 +22 +22 комфорт 1014.1 948.3
08 17.03 Ю 5 н/о н/о +20.9 +7.9 43 +22 +22 комфорт 1014.5 948.7
09 17.03 Ю 6 н/о н/о +20.5 +8.2 45 +22 +22 комфорт 1014.6 948.8
10 17.03 Ю 3 н/о 10/0
[]
+20.2 +8.8 48 +22 +22 комфорт 1014.9 949.1
11 17.03 Ю 5 н/о н/о +19.7 +10.1 54 +21 +21 комфорт 1014.7 948.9
12 17.03 Ю 5 н/о н/о +18.1 +10.7 62 +18 +18 тепло 1014.6 948.8
13 17.03 Ю 8 н/о ливневой дождь 10/0 2000 м
[]
+17.3 +10.9 66 +16 +16 тепло 1014.5 948.7 +23.2
14 17.03 Ю 4 н/о н/о +14.1 +11.3 83 +13 +13 по сезону 1014.5 948.7
15 17.03 З 3 н/о н/о +13.8 +11.7 87 +13 +13 по сезону 1013.8 948.1
16 17.03 ЮЗ 1 н/о дождь {туман} 10/10 300 м
[]
+13.3 +11.4 88 +14 +14 тепло 1013.2 947.5
17 17.03 штиль 0 н/о н/о +12.9 +11.3 90 +12 +12 по сезону 1012.3 946.7
18 17.03 З 2 н/о н/о +12.9 +12.6 98 +12 +12 по сезону 1011.7 946.1
19 17.03 З 4 н/о слаб. дождь {туман} 10/10 1000 м
[]
+13.8 +13.3 97 +12 +12 прохладно 1011.2 945.6
20 17.03 ЮЗ 3 н/о н/о +15.1 +14.0 93 +14 +14 по сезону 1011.4 945.8
21 17.03 ЮЗ 5 н/о н/о +16.7 +14.3 86 +16 +16 по сезону 1011.6 946.0
22 17.03 Ю 8 н/о {туман} 10/10 600 м
[]
+18.8 +14.5 76 +19 +19 по сезону 1011.7 946.1
23 17.03 Ю 6 н/о н/о +19.2 +14.2 73 +20 +20 по сезону 1012.2 946.6
00 18.03 Ю 7 н/о н/о +20.9 +15.2 70 +24 +24 комфорт 1011.9 946.3
01 18.03 ЮВ 8 н/о 10/10 600 м
[]
+22.7 +15.5 64 +27 +27 душно 1011.4 945.8 +12.8
02 18.03 ЮВ 8 н/о н/о +24.4 +15.6 58 +27 +27 жарко 1011.3 945.7
03 18.03 В 8 н/о н/о +24.6 +14.4 53 +27 +27 жарко 1011.5 945.9
04 18.03 В 8 н/о в посл. час ливневой снег 10/10 1000 м
[]
+24.4 +15.1 56 +27 +27 жарко 1011.4 945.8
05 18.03 ЮВ 8 н/о н/о +24.5 +13.1 49 +27 +27 жарко 1011.4 945.8
06 18.03 В 8 н/о н/о +23.9 +14.0 54 +26 +26 жарко 1011.3 945.7
07 18.03 ЮВ 6 н/о н/о +22.1 +12.9 56 +25 +25 комфорт 1011.7 946.1
08 18.03 ЮВ 4 н/о н/о +20.9 +13.1 61 +24 +24 комфорт 1012.3 946.8
09 18.03 ЮВ 4 н/о н/о +19.6 +14.0 70 +21 +21 комфорт 1013.1 947.4
10 18.03 ЮВ 4 н/о 1/0
[]
+18.8 +14.5 76 +20 +20 тепло 1014.0 948.2
11 18.03 ЮВ 4 н/о н/о +17.9 +14.4 80 +18 +18 тепло 1014.1 948.3
12 18.03 штиль 0 н/о н/о +16.5 +13.6 83 +16 +16 по сезону 1014.2 948.4
13 18.03 Ю 3 н/о 5/5 600 м
[]
+16.4 +14.1 86 +16 +16 тепло 1014.1 948.3 +25.6
14 18.03 ЮВ 3 н/о н/о +17.2 +14.8 86 +17 +17 тепло 1014.1 948.3
15 18.03 ЮВ 1 н/о н/о +17.4 +14.7 84 +18 +18 тепло 1013.7 948.0
16 18.03 штиль 0 н/о 9/9 1000 м
[]
+16.9 +14.5 86 +17 +17 тепло 1013.2 947.5
17 18.03 Ю 2 н/о н/о +16.6 +14.4 87 +17 +17 тепло 1012.9 947.2
18 18.03 Ю 2 н/о н/о +16.5 +14.3 87 +17 +17 тепло 1012.9 947.2
19 18.03 ЮВ 3 н/о 10/10 600 м
[]
+16.3 +14.3 88 +16 +16 тепло 1013.1 947.4
20 18.03 ЮЗ 4 н/о н/о +17.1 +14.7 86 +17 +17 тепло 1013.4 947.7
21 18.03 Ю 4 н/о н/о +17.8 +14.5 81 +18 +18 тепло 1014.1 948.3
22 18.03 Ю 3 н/о 10/10 600 м
[]
+18.7 +14.8 78 +20 +20 по сезону 1014.5 948.7
23 18.03 В 3 н/о н/о +20.4 +14.3 68 +23 +23 комфорт 1014.8 949.0
00 19.03 Ю 4 н/о н/о +22.4 +13.5 57 +25 +25 комфорт 1014.8 949.0
01 19.03 ЮВ 4 н/о 10/10 1000 м
[]
+22.6 +13.9 58 +26 +26 жарко 1014.5 948.7 +15.8
02 19.03 В 5 н/о н/о +23.8 +14.2 55 +26 +26 жарко 1013.7 948.0
03 19.03 ЮВ 5 н/о н/о +24.6 +13.2 49 +27 +27 жарко 1013.0 947.3
04 19.03 В 6 н/о 10/0 2000 м
[]
+25.2 +12.8 46 +27 +29 жарко 1012.3 946.7
05 19.03 ЮВ 5 н/о н/о +21.4 +16.4 73 +25 +25 комфорт 1012.6 946.9
06 19.03 ЮВ 4 н/о н/о +23.0 +14.8 60 +27 +27 душно 1012.3 946.8
07 19.03 ЮВ 5 н/о {туман} 3/0
[]
+22.2 +14.3 61 +25 +26 комфорт 1012.6 946.9
08 19.03 ЮВ 4 н/о н/о +21.4 +14.3 64 +24 +24 комфорт 1013.3 947.6
09 19.03 В 4 н/о н/о +20.1 +14.0 68 +22 +22 комфорт 1013.8 948.1
10 19.03 ЮВ 2 н/о {туман} 4/0
[]
+18.7 +14.4 76 +20 +20 тепло 1014.6 948.8
11 19.03 ЮВ 1 н/о н/о +16.9 +13.8 82 +18 +18 тепло 1015.2 949.4
12 19.03 ЮВ 3 н/о н/о +15.5 +13.9 90 +15 +15 по сезону 1015.5 949.6
13 19.03 В 3 н/о 3/3 600 м
[]
+15.9 +14.6 92 +16 +16 тепло 1015.1 949.3 +26.1
14 19.03 З 2 н/о н/о +16.1 +14.6 91 +16 +16 тепло 1014.8 949.0
15 19.03 ЮЗ 1 н/о н/о +15.1 +13.6 91 +16 +16 тепло 1014.5 948.7
16 19.03 штиль 0 н/о н/о +14.9 +14.1 95 +15 +15 тепло 1014.0 948.2
17 19.03 штиль 0 н/о н/о +14.1 +13.5 96 +14 +14 тепло 1013.7 948.0
18 19.03 штиль 0 н/о н/о +14.0 +13.5 97 +14 +14 тепло 1013.8 948.1
19 19.03 С 2 н/о 1/0
[]
+13.0 +12.5 97 +12 +12 по сезону 1014.3 948.5
20 19.03 штиль 0 н/о н/о +13.2 +13.0 99 +13 +13 по сезону 1014.7 948.9
21 19.03 С 1 н/о н/о +15.0 +14.8 99 +16 +16 по сезону 1015.2 949.4
22 19.03 штиль 0 н/о н/о +17.2 +14.3 83 +17 +17 холодно 1015.5 949.6
23 19.03 ЮВ 3 н/о н/о +20.0 +13.5 66 +22 +22 комфорт 1015.6 949.7
00 20.03 ЮВ 2 н/о н/о +22.0 +13.6 59 +25 +25 комфорт 1015.2 949.4
01 20.03 Ю 3 н/о {туман} н/о +24.0 +12.9 50 +26 +26 жарко 1014.7 948.9 +12.3
02 20.03 СЗ 2 н/о н/о +25.2 +12.1 44 +27 +27 жарко 1014.1 948.3
03 20.03 Ю 3 н/о н/о +26.8 +11.3 38 +28 +28 жарко 1013.2 947.5
04 20.03 Ю 3 н/о {туман} 4/4 1500 м
[]
+26.5 +10.6 37 +27 +33 жарко 1012.5 946.8
05 20.03 В 5 н/о н/о +26.8 +10.9 37 +28 +28 жарко 1012.0 946.4
06 20.03 В 5 н/о н/о +26.4 +12.5 42 +28 +28 жарко 1012.0 946.4
07 20.03 В 7 н/о 10/0 2000 м
[]
+24.7 +13.9 51 +27 +27 жарко 1012.7 947.0
08 20.03 В 6 н/о н/о +23.1 +14.4 58 +27 +27 душно 1013.4 947.7
09 20.03 В 5 н/о н/о +21.2 +15.7 71 +24 +24 комфорт 1014.2 948.4
10 20.03 В 3 н/о н/о +19.6 +15.5 77 +22 +22 комфорт 1015.1 949.3
11 20.03 В 1 н/о н/о +18.7 +15.2 80 +21 +21 комфорт 1015.6 949.7
12 20.03 В 3 н/о н/о +17.7 +15.0 84 +18 +18 по сезону 1015.9 950.0
13 20.03 СВ 2 н/о 3/3 600 м
[]
+17.6 +14.9 84 +18 +18 тепло 1015.9 950.0 +28.9
14 20.03 СВ 2 н/о н/о +15.9 +14.6 92 +16 +16 тепло 1015.8 949.9
15 20.03 штиль 0 н/о н/о +15.9 +15.3 96 +16 +16 тепло 1015.6 949.7
16 20.03 штиль 0 н/о 9/9 600 м
[]
+17.2 +15.4 89 +17 +17 тепло 1015.1 949.3
17 20.03 В 2 н/о н/о +16.9 +15.6 92 +17 +17 тепло 1015.1 949.3
18 20.03 ЮВ 3 н/о н/о +17.0 +15.2 89 +17 +17 тепло 1015.2 949.4
19 20.03 Ю 3 н/о н/о +15.4 +14.3 93 +15 +15 по сезону 1015.8 949.9
20 20.03 Ю 1 н/о н/о +14.9 +14.1 95 +16 +16 по сезону 1016.4 950.5
21 20.03 ЮВ 2 н/о н/о +16.6 +14.4 87 +17 +17 по сезону 1017.1 951.1
22 20.03 ЮВ 4 н/о н/о +18.6 +13.7 73 +19 +19 по сезону 1017.4 951.4
23 20.03 Ю 2 н/о н/о +20.6 +14.7 69 +24 +24 комфорт 1017.6 951.6
00 21.03 В 3 н/о н/о +23.1 +14.7 59 +27 +27 душно 1017.4 951.4
01 21.03 В 2 н/о 6/6 600 м
[]
+24.0 +14.7 56 +27 +32 жарко 1017.1 951.1 +14.8
02 21.03 З 3 н/о н/о +24.5 +14.0 52 +27 +27 жарко 1016.3 950.4
03 21.03 С 4 н/о н/о +25.6 +14.1 49 +28 +28 жарко 1015.3 949.5
04 21.03 С 4 н/о 9/9 1000 м
[]
+26.2 +13.3 45 +28 +29 жарко 1014.5 948.7
05 21.03 В 4 н/о н/о +25.7 +12.5 44 +27 +27 жарко 1014.1 948.3
06 21.03 В 4 н/о н/о +24.6 +13.2 49 +27 +27 жарко 1014.4 948.6
07 21.03 В 4 н/о град 10/10 1500 м
[]
+24.0 +13.5 52 +26 +26 жарко 1014.8 949.0
08 21.03 В 4 н/о н/о +22.6 +15.4 64 +27 +27 душно 1015.2 949.4
09 21.03 В 3 н/о н/о +21.3 +15.8 71 +25 +25 комфорт 1016.4 950.5
10 21.03 В 3 н/о в посл. час дождь со снегом 10/0
[]
+19.9 +16.2 79 +23 +23 комфорт 1016.8 950.9
11 21.03 СВ 3 н/о н/о +19.6 +15.9 79 +22 +22 комфорт 1017.7 951.7
12 21.03 штиль 0 н/о н/о +19.1 +15.8 81 +20 +20 тепло 1017.7 951.7
13 21.03 В 3 н/о 9/0
[]
+18.3 +15.4 83 +19 +19 тепло 1017.7 951.7 +27.4
14 21.03 В 3 н/о н/о +17.3 +15.3 88 +17 +17 тепло 1017.2 951.2
15 21.03 В 1 н/о н/о +17.3 +15.1 87 +18 +18 тепло 1017.4 951.4
16 21.03 В 3 н/о 10/10 600 м
[]
+17.2 +15.7 91 +17 +17 тепло 1017.1 951.1

 

Местоположение метеостанции Канберра (Новый Южный Уэльс, Австралия): широта -35.30 долгота 149.20 высота над уровнем моря 580 м.

В архиве по умолчанию представлена погода в Канберре за последнюю неделю. Архивные данные за месяц целиком и за предыдущие месяцы, начиная с января 2011 года, Вы можете получить, выбрав интересующий диапазон дат из раскрывающегося списка и нажав кнопку "Ввод!".


*Определитесь, кто Вы:
робот инопланетянин человек

Внимание! Время в таблицах - всемирное. Для получения местного времени необходимо прибавить поправку, которая равна 10 ч.

Смотрите также архив погоды в соседних городах и на ближайших метеорологических станциях:

Погода в Таггеранонге (Новый Южный Уэльс, Австралия) (16 км)
Погода в Маунт Джинини (Новый Южный Уэльс, Австралия) (47 км)
Погода в Брейдвуде (Новый Южный Уэльс, Австралия) (55 км)
Погода в Гоулберне (Новый Южный Уэльс, Австралия) (72 км)
Погода в Нерриге (Новый Южный Уэльс, Австралия) (83 км)
Погода в Кабрамерре (Новый Южный Уэльс, Австралия) (102 км)
Погода в Моруе (Новый Южный Уэльс, Австралия) (109 км)
Погода в Аэропорту Сноуи Маунтинс (Новый Южный Уэльс, Австралия) (113 км)
Погода в Улладалле (Новый Южный Уэльс, Австралия) (116 км)
Погода в Нора Хилл (Новый Южный Уэльс, Австралия) (127 км)

Пояснения к столбцам:

Ветер - указаны скорость ветра в м/с - средняя за 10 мин, порывы в срок и между сроками (в фигурных скобках) и направление, откуда дует ветер: С - северный, СВ - северо-восточный, В - восточный, ЮВ - юго-восточный, Ю - южный, ЮЗ - юго-западный, З - западный, СЗ - северо-западный.
Видимость - горизонтальная дальность видимости в метрах или километрах. При видимости от 1 до 10 км при отсутствии осадков обычно наблюдается дымка, при ухудшении видимости до 1 км и менее - туман. В сухую погоду видимость может ухудшаться дымом, пылью или мглою.
Явления - указаны атмосферные явления, наблюдавшиеся в срок или в последний час перед сроком; фигурными скобками обозначены явления, наблюдавшиеся между сроками (за 1-3 часа до срока); квадратными скобками обозначены град или гололедные отложения с указанием их диаметра в мм.
Облачность - указаны через наклонную черту общая и нижняя облачность в баллах и высота нижней границы облаков в метрах; квадратными скобками обозначены формы облаков: Ci - перистые, Cs - перисто-слоистые, Cc - перисто-кучевые, Ac - высококучевые, As - высокослоистые, Sc - слоисто-кучевые, Ns - слоисто-дождевые, Cu - кучевые, Cb - кучево-дождевые. Подробнее классификацию облаков см. в Атласе облаков (PDF).
T - Температура воздуха - температура, измеренная на высоте 2 м над землей.
Td - Температура точки росы - температура, при понижении до которой содержащийся в воздухе водяной пар достигнет насыщения.
f - Относительная влажность воздуха - влажноcть воздуха, измеренная на высоте 2 м над землей.
Te - Эффективная температура - температура, которую ощущает одетый по сезону человек в тени. Характеристика душности погоды. При расчете учитывается влияние влажности воздуха и скорости ветра на теплоощущения человека.
Tes - Эффективная температура на солнце - температура, которую ощущает человек, с поправкой на солнечный нагрев. Характеристика знойности погоды. Зависит от высоты солнца над горизонтом, облачности и скорости ветра. Ночью, в пасмурную погоду, а также при ветре 12 м/с и более поправка равна нулю.
P - Атмосферное давление - приведенное к уровню моря атмосферное давление.
Po - Атмосферное давление - измеренное на уровне метеостанции атмосферное давление.
Tmin - Минимальная температура - минимум температуры воздуха на высоте 2 м над землей.
Tmax - Максимальная температура - максимум температуры воздуха на высоте 2 м над землей.
R - Количество осадков - Количество выпавших осадков за период времени, мм. При наведении курсора мыши на число - период времени, за который выпало указанное количество осадков.
R24 - Количество осадков - Количество выпавших осадков за 24 часа, мм.
S - Снежный покров - Высота снежного покрова, см. При наведении курсора мыши на число - состояние снежного покрова и степень покрытия местности в баллах.